Location: Recife
(8.0585°S, 34.8848°W)
Time: 13:24:00
(UTC-03:00)

Transit 4A - Pass Details

Date: 19 April 2026
Orbit: 861 x 980 km, 66.8° (Epoch: 12 May)

Event Time Altitude Azimuth Distance (km) Brightness Sun altitude
Rises 10:28:36 0° 178° (S) 3,444 10.7 67.0°
Reaches altitude 10° 10:31:34 10° 164° (SSE) 2,508 10.1 67.4°
Maximum altitude 10:36:07 24° 112° (ESE) 1,732 9.7 67.9°
Drops below altitude 10° 10:40:43 10° 60° (ENE) 2,533 10.6 68.5°
Sets 10:43:41 0° 46° (NE) 3,485 11.2 68.8°
